This is the latest recevied weather packets stored in our database for station/object KC3VCX. If no packets are shown the sender has not sent any weather packets the latest 10 day(s).
| Time | Temp. | Humidity | Pressure | Rain* | Wind** | Luminosity | Snow |
|---|---|---|---|---|---|---|---|
| 1777894644 | 10° C | 60% | 1013.2 hPa | 0 mm | - | 94 W/m² | - |
| 1777894341 | 10° C | 60% | 1013.2 hPa | 0 mm | - | 89 W/m² | - |
| 1777894039 | 10° C | 59% | 1013.3 hPa | 0 mm | - | 77 W/m² | - |
| 1777893735 | 9.44° C | 61% | 1013.2 hPa | 0 mm | - | 68 W/m² | - |
| 1777893431 | 9.44° C | 60% | 1013.4 hPa | 0 mm | - | 57 W/m² | - |
| 1777893128 | 8.89° C | 61% | 1013.3 hPa | 0 mm | - | 44 W/m² | - |
| 1777892824 | 8.89° C | 61% | 1013.6 hPa | 0 mm | - | 39 W/m² | - |
| 1777892521 | 8.89° C | 61% | 1013.4 hPa | 0 mm | - | 37 W/m² | - |
| 1777892216 | 8.89° C | 61% | 1013.2 hPa | 0 mm | - | 31 W/m² | - |
| 1777891913 | 8.89° C | 61% | 1013.3 hPa | 0 mm | - | 28 W/m² | - |
| 1777891610 | 8.89° C | 60% | 1013.4 hPa | 0 mm | - | 23 W/m² | - |
| 1777891307 | 8.89° C | 60% | 1013.5 hPa | 0 mm | - | 16 W/m² | - |
| 1777891007 | 8.89° C | 60% | 1013.4 hPa | 0 mm | - | 11 W/m² | - |
| 1777890701 | 8.89° C | 61% | 1013.5 hPa | 0 mm | - | 8 W/m² | - |
| 1777890398 | 8.89° C | 60% | 1013.6 hPa | 0 mm | - | 6 W/m² | - |
| 1777890093 | 8.33° C | 61% | 1013.5 hPa | 0 mm | - | 5 W/m² | - |
| 1777889792 | 8.89° C | 60% | 1013.4 hPa | 0 mm | - | 3 W/m² | - |
| 1777889489 | 8.89° C | 60% | 1013.5 hPa | 0 mm | - | 2 W/m² | - |
| 1777889186 | 8.89° C | 60% | 1013.4 hPa | 0 mm | - | 1 W/m² | - |
| 1777888885 | 8.89° C | 60% | 1013.5 hPa | 0 mm | - | 0 W/m² | - |
| 1777888580 | 8.89° C | 60% | 1013.6 hPa | 0 mm | - | 0 W/m² | - |
| 1777888276 | 8.89° C | 60% | 1013.6 hPa | 0 mm | - | 0 W/m² | - |
| 1777887973 | 8.89° C | 59% | 1013.6 hPa | 0 mm | - | 0 W/m² | - |
| 1777887671 | 8.89° C | 59% | 1013.4 hPa | 0 mm | - | 0 W/m² | - |
| 1777887367 | 8.89° C | 59% | 1013.7 hPa | 0 mm | - | 0 W/m² | - |
* Rain latest hour (hover to see other rain measurements)
** Current wind speed in m/s (hover to see current wind gust speed)